SCP
0 0 0 0 0 0 0 0 0 0 0 0 0 0 0 0 0 0 0 0 0 0 0 0 0 -0 -0 0 0 0 0 0 0 0 0 0 0 0 -0 -0 0 0 0
0 0 0 0 0 0 0 0 0 0 0 0 0 0 0 0 0 0 0 0 0 0 0 0 0 0 -0 -0 0 0 0 0 0 0 0 0 0 0 0 0 -0 0 0
0 0 0 0 0 0 0 0 0 0 0 0 0 0 0 0 0 0 0 0 0 0 0 0 0 0 0 0 0 0 0 0 0 0 0 0 0 0 0 0 0 -0 0
0 0 0 0 0 0 0 0 0 0 0 0 0 0 0 0 0 0 0 0 0 0 0 0 0 0 0 0 0 0 0 0 0 0 0 0 -0 -0 -0 -0 -0 0 0
0 0 0 0 0 0 0 0 0 0 0 0 0 0 0 0 0 0 0 0 0 0 0 0 0 0 0 0 0 0 0 0 0 0 0 0 0 0 0 0 0 0 0
0 0 0 0 0 0 0 0 0 0 0 0 0 0 0 0 0 0 0 0 0 0 0 0 0 0 0 0 0 0 0 0 0 0 0 0 0 0 0 0 0 0 -0
0 0 0 0 0 0 0 0 0 0 0 0 0 0 0 0 0 0 0 0 0 0 0 0 0 0 0 0 0 0 0 0 0 0 0 0 0 0 0 0 0 0 0
0 0 0 0 0 0 0 0 0 0 0 0 0 0 0 0 0 0 0 0 0 0 0 0 0 0 0 0 0 0 0 0 0 0 0 0 0 0 0 0 0 0 0
0 0 0 0 0 0 0 0 0 0 0 0 0 0 0 0 0 0 0 0 0 0 0 0 0 0 0 0 0 0 0 0 0 0 0 0 0 0 0 0 0 0 0
0 0 0 0 0 0 0 0 0 0 0 0 0 0 0 0 0 0 0 0 0 0 0 0 0 0 0 0 0 0 0 0 0 0 0 0 0 0 0 0 0 0 0
0 0 0 0 0 0 0 0 0 0 0 0 0 0 0 0 0 0 0 0 0 0 0 0 0 0 0 0 0 0 0 0 0 0 0 0 0 0 0 0 0 0 0
0 0 0 0 0 0 0 0 0 0 0 0 0 0 0 0 0 0 0 0 0 0 0 0 0 0 0 0 0 0 0 0 0 0 0 0 0 0 0 0 0 0 0
0 0 0 0 0 0 0 0 0 0 0 0 0 0 0 0 0 0 0 0 0 0 0 0 0 0 0 0 0 0 0 0 0 0 0 0 0 0 0 0 0 0 0
0 0 0 0 0 0 0 0 0 0 0 0 0 0 0 0 0 0 0 0 0 0 0 0 0 0 0 0 0 0 0 0 0 0 0 0 0 0 0 0 0 0 0
0 0 0 0 0 0 0 0 0 0 0 0 0 0 0 0 0 0 0 0 0 0 0 0 0 0 0 0 0 0 0 0 0 0 0 0 0 0 0 0 0 0 0
0 0 0 0 0 0 0 0 0 0 0 0 0 0 0 0 0 0 0 0 0 0 0 0 0 0 0 0 0 0 0 0 0 0 0 0 0 0 0 0 0 0 0
0 0 0 0 0 0 0 0 0 0 0 0 0 0 0 0 0 0 0 0 0 0 0 0 0 0 0 0 0 0 0 0 0 0 0 0 0 0 0 0 0 0 0
0 0 0 0 0 0 0 0 0 0 0 0 0 0 0 0 0 0 0 0 0 0 0 0 0 0 0 0 0 0 0 0 0 0 0 0 0 0 0 0 0 0 0
0 0 0 0 0 0 0 0 0 0 0 0 0 0 0 0 0 0 0 0 0 0 0 0 0 0 0 0 0 0 0 0 0 0 0 0 0 0 0 0 0 0 0
0 0 0 0 0 0 0 0 0 0 0 0 0 0 0 0 0 0 0 0 0 0 0 0 0 0 0 0 0 0 0 0 0 0 0 0 0 0 0 0 0 0 0
0 0 0 0 0 0 0 0 0 0 0 0 0 0 0 0 0 0 0 0 0 0 0 0 0 0 0 0 0 0 0 0 0 0 0 0 0 0 0 0 0 0 0
0 0 0 0 0 0 0 0 0 0 0 0 0 0 0 0 0 0 0 0 0 0 0 0 0 0 0 0 0 0 0 0 0 0 0 0 0 0 0 0 0 0 0
0 0 0 0 0 0 0 0 0 0 0 0 0 0 0 0 0 0 0 0 0 0 0 0 0 0 0 0 0 0 0 0 0 0 0 0 0 0 0 0 0 0 0
0 0 0 0 0 0 0 0 0 0 0 0 0 0 0 0 0 0 0 0 0 0 0 0 0 0 0 0 0 0 0 0 0 0 0 0 0 0 0 0 0 0 0
0 0 0 0 0 0 0 0 0 0 0 0 0 0 0 0 0 0 0 0 0 0 0 0 0 0 0 0 0 0 0 0 0 0 0 0 0 0 0 0 0 0 0
0 0 0 0 0 0 0 0 0 0 0 0 0 0 0 0 0 0 0 0 0 0 0 0 0 0 0 0 0 0 0 0 0 0 0 0 0 0 0 0 0 0 0
Wind_Speed_500mb
27 23 17 11 7 3 3 8 14 19 23 27 31 35 38 40 44 46 49 53 57 60 61 63 65 65 64 62 60 58 55 48 61 79 70 83 90 90 92 92 91 90 86
30 25 20 16 10 9 8 12 17 22 27 32 35 37 39 42 46 51 53 56 60 63 65 66 68 68 68 65 60 58 54 52 56 75 81 67 71 79 85 88 89 92 92
36 30 25 20 16 15 15 18 21 26 31 35 37 40 43 47 51 55 57 59 61 62 64 67 70 73 74 71 68 67 63 59 55 66 89 73 67 64 75 75 75 80 86
41 36 30 24 22 23 24 26 28 31 35 38 41 43 46 50 54 56 59 61 63 64 65 68 70 72 72 74 75 69 61 57 56 61 73 81 64 56 57 67 75 64 58
48 43 35 30 30 32 33 37 38 37 38 40 43 46 49 52 56 59 60 63 64 65 66 68 70 73 75 72 66 62 58 59 59 62 71 72 71 60 53 48 60 65 74
52 46 40 39 39 41 43 45 46 44 42 42 46 50 54 57 59 61 63 64 65 67 70 71 70 70 68 67 63 53 50 58 64 67 72 70 68 59 61 65 67 65 77
53 49 47 47 50 50 50 52 52 50 47 45 49 54 59 61 61 62 64 64 66 68 69 71 70 65 65 61 57 53 52 51 53 61 71 67 69 58 56 59 60 66 76
53 52 51 54 55 55 54 54 55 53 51 51 54 58 63 60 62 62 63 63 65 66 66 67 66 64 60 55 58 60 63 61 60 61 64 71 67 66 65 67 73 78 80
52 51 54 56 56 57 58 56 56 54 53 53 57 62 60 61 60 61 62 62 63 65 65 62 59 58 55 55 66 73 73 73 69 71 71 67 66 64 62 65 72 71 75
43 48 53 52 52 56 58 57 55 54 55 57 61 63 62 61 58 59 60 59 60 59 59 58 53 55 57 59 65 73 87 83 75 81 86 83 72 65 57 59 63 73 76
42 48 53 55 56 57 58 56 55 55 57 60 62 62 59 58 57 58 58 54 51 52 52 56 55 55 58 62 62 71 78 77 76 72 78 77 73 68 65 65 63 64 73
49 56 59 61 61 59 55 54 55 56 58 62 62 61 60 56 56 56 56 53 46 48 51 55 55 56 66 66 64 61 60 59 67 63 62 64 59 59 60 55 55 61 69
56 62 63 60 59 55 54 54 55 56 60 60 60 59 57 56 57 55 51 46 44 40 49 51 61 71 65 64 58 56 57 55 52 52 51 52 48 51 53 56 60 62 66
58 59 58 57 55 54 54 54 55 57 58 58 56 56 57 58 59 52 46 46 42 45 55 71 66 61 59 57 53 49 48 45 46 47 46 50 54 55 55 56 56 55 57
53 53 55 55 53 53 54 54 57 56 56 55 55 54 55 57 51 41 40 40 44 51 57 60 56 55 55 52 50 49 47 46 44 42 46 50 51 51 53 52 50 48 49
52 51 53 53 53 54 55 56 56 57 55 56 55 52 52 52 43 43 38 39 44 59 55 53 51 50 51 50 50 50 49 49 49 51 48 46 48 51 53 53 48 49 54
50 50 52 53 54 54 56 57 56 53 54 55 52 52 54 58 57 39 37 35 53 50 44 45 46 45 46 47 48 48 51 51 52 53 53 50 48 51 51 51 50 52 57
50 51 52 54 55 57 58 57 57 58 59 53 49 53 56 55 51 43 33 40 45 38 39 42 42 42 43 45 47 48 49 50 53 55 57 51 49 52 55 56 53 53 58
49 51 52 55 56 56 57 57 58 59 60 62 58 45 46 53 51 41 40 44 44 41 40 41 41 43 44 45 46 48 49 50 52 57 60 56 52 56 59 56 55 55 55
48 51 53 54 55 56 57 58 60 60 61 60 58 48 41 47 47 41 39 42 43 43 43 45 45 45 45 46 47 48 49 49 51 55 59 59 56 61 57 56 54 55 56
46 48 50 53 54 56 59 60 59 61 61 59 53 47 42 43 49 43 38 39 42 43 44 47 48 47 45 45 46 46 46 47 48 53 58 61 61 63 57 53 52 51 52
42 44 49 53 54 55 56 58 58 58 58 57 50 44 42 44 47 44 41 41 43 45 45 46 46 44 42 43 44 44 43 42 43 50 56 59 63 60 55 52 50 47 46
42 43 45 47 49 52 54 54 54 54 53 51 48 45 44 45 46 46 44 44 45 44 42 43 43 39 38 39 39 41 43 39 38 46 54 58 60 56 51 49 46 45 43
39 41 42 43 45 47 48 48 47 47 47 47 47 46 45 46 46 45 43 43 43 41 39 41 41 38 36 37 36 35 35 33 32 42 46 51 51 49 47 45 42 40 40
35 35 36 35 36 36 39 41 42 43 43 43 44 44 44 44 45 42 41 40 41 40 38 39 38 37 36 36 34 33 31 27 23 36 44 40 38 39 41 42 42 39 36
31 32 32 33 34 36 40 41 41 41 41 40 40 41 41 41 40 40 39 40 41 42 41 39 37 37 37 35 33 31 28 26 19 24 34 29 31 34 36 38 38 38 38
Wind_Direction_500mb
189 190 196 203 208 251 323 329 329 330 331 327 325 323 323 325 325 326 328 328 328 327 327 325 323 319 316 312 306 300 293 286 283 287 285 288 288 290 292 292 288 286 283
201 204 208 222 234 251 283 305 314 318 322 323 319 318 320 321 322 323 324 325 325 325 325 324 320 317 314 311 307 301 295 290 287 289 292 291 288 287 288 290 291 286 284
211 213 219 228 241 261 277 291 301 311 317 317 315 316 319 320 321 321 321 321 321 320 320 319 316 313 311 309 306 301 296 292 287 285 291 292 290 292 293 288 289 289 286
218 220 228 237 251 263 274 280 293 303 309 312 313 313 316 317 317 317 318 318 318 318 317 315 313 311 309 308 305 301 299 296 294 289 289 293 294 296 290 291 294 292 287
222 225 231 241 254 265 271 279 283 290 298 306 309 310 312 313 314 316 316 316 315 316 315 313 312 311 310 307 305 301 297 295 294 293 291 293 293 294 291 292 283 285 282
226 229 236 246 256 267 271 275 276 279 287 297 305 309 311 312 312 313 314 315 316 316 315 313 312 311 311 308 303 296 293 295 294 290 290 292 294 295 293 286 285 289 288
228 233 241 251 259 266 272 274 272 273 282 291 301 307 310 309 307 310 312 314 315 314 312 312 312 313 313 308 303 299 296 295 290 291 288 287 290 292 291 289 286 285 287
230 236 245 255 262 267 270 271 269 272 282 292 298 302 306 304 305 308 311 313 313 311 311 312 310 313 312 306 306 306 305 299 295 291 288 290 289 291 288 288 290 290 290
233 243 251 258 263 266 268 268 270 275 283 290 298 304 303 303 305 308 310 312 311 311 311 313 311 310 309 309 307 304 302 302 306 306 304 289 284 284 282 285 283 284 285
239 254 257 257 264 267 269 271 274 279 285 293 299 300 300 300 305 306 309 309 308 308 309 312 313 308 308 307 304 303 302 302 305 301 300 299 296 294 284 273 272 275 280
259 258 254 256 260 265 267 271 276 280 285 291 296 297 296 299 302 305 308 310 308 307 308 308 310 311 311 306 301 295 295 300 299 291 289 290 290 286 283 282 278 275 276
261 259 257 257 258 263 268 272 276 280 287 293 294 293 295 299 301 305 308 308 303 303 307 309 309 310 307 309 307 303 302 299 293 297 297 298 295 290 288 286 280 275 272
265 260 256 255 259 265 269 272 276 281 287 289 289 291 294 297 299 303 305 306 306 306 305 301 302 315 318 318 318 312 307 306 305 303 302 301 300 296 293 291 290 285 280
264 258 253 255 261 265 268 271 275 281 284 285 286 290 293 296 300 303 310 317 317 311 305 303 312 316 321 324 327 326 324 319 313 308 304 303 305 305 305 305 299 297 293
259 252 250 255 260 263 267 271 276 279 280 281 284 286 290 295 301 306 307 306 310 300 298 307 315 320 324 329 332 337 338 335 326 317 312 313 314 313 315 315 306 300 290
250 248 253 257 259 263 267 272 275 278 277 280 285 286 288 291 288 295 299 298 294 286 299 308 315 320 324 329 334 337 340 341 338 329 323 320 319 321 319 319 316 301 292
248 250 253 255 260 265 268 271 274 273 275 279 280 282 284 285 285 287 289 293 279 290 296 305 310 317 322 327 331 334 336 341 341 341 334 329 328 327 323 316 311 306 299
245 250 253 259 263 266 269 271 272 274 277 275 275 280 284 281 279 281 285 276 288 290 295 300 307 313 317 322 326 329 333 337 341 342 341 338 336 330 324 321 316 307 305
248 252 257 262 265 266 268 269 271 273 277 281 285 281 276 274 276 277 271 282 286 290 293 296 302 308 312 315 319 323 327 334 337 341 343 342 339 330 326 322 319 316 316
254 258 261 264 266 268 270 271 273 276 277 280 282 283 272 270 272 270 270 274 278 286 292 296 301 304 308 310 313 317 322 329 334 338 342 343 340 334 330 326 324 322 319
258 262 266 268 271 272 273 274 276 277 279 279 279 277 273 267 267 271 269 271 277 282 288 292 297 301 305 308 310 314 320 324 330 335 341 343 344 339 335 331 329 326 325
265 268 271 273 275 276 276 277 278 278 278 278 276 271 267 264 269 272 273 274 278 283 287 291 295 300 305 308 309 312 318 324 329 336 338 342 345 339 337 336 334 332 331
273 275 276 278 280 281 282 282 281 279 278 276 274 270 266 265 267 270 273 276 279 282 285 289 292 297 302 305 307 311 315 323 330 335 338 344 341 341 341 340 338 336 336
279 281 283 285 286 285 285 286 284 281 278 276 274 272 269 269 269 272 273 275 278 280 284 286 289 294 298 299 303 307 309 316 324 333 341 339 339 345 347 346 346 344 341
286 287 289 289 288 287 287 288 288 286 284 280 277 275 273 272 273 273 274 275 276 280 282 283 285 289 292 294 300 304 306 307 316 337 339 333 339 348 355 358 359 359 357
287 288 288 287 286 286 288 290 289 288 286 283 280 277 276 275 275 276 277 277 279 282 283 283 283 284 285 288 294 299 305 305 291 335 329 335 347 355 359 1 4 9 13
Wind_Speed_850mb
27 23 17 11 7 3 3 8 14 19 23 27 31 35 38 40 44 46 49 53 57 60 61 63 65 65 64 62 60 58 55 48 61 79 70 83 90 90 92 92 91 90 86
30 25 20 16 10 9 8 12 17 22 27 32 35 37 39 42 46 51 53 56 60 63 65 66 68 68 68 65 60 58 54 52 56 75 81 67 71 79 85 88 89 92 92
36 30 25 20 16 15 15 18 21 26 31 35 37 40 43 47 51 55 57 59 61 62 64 67 70 73 74 71 68 67 63 59 55 66 89 73 67 64 75 75 75 80 86
41 36 30 24 22 23 24 26 28 31 35 38 41 43 46 50 54 56 59 61 63 64 65 68 70 72 72 74 75 69 61 57 56 61 73 81 64 56 57 67 75 64 58
48 43 35 30 30 32 33 37 38 37 38 40 43 46 49 52 56 59 60 63 64 65 66 68 70 73 75 72 66 62 58 59 59 62 71 72 71 60 53 48 60 65 74
52 46 40 39 39 41 43 45 46 44 42 42 46 50 54 57 59 61 63 64 65 67 70 71 70 70 68 67 63 53 50 58 64 67 72 70 68 59 61 65 67 65 77
53 49 47 47 50 50 50 52 52 50 47 45 49 54 59 61 61 62 64 64 66 68 69 71 70 65 65 61 57 53 52 51 53 61 71 67 69 58 56 59 60 66 76
53 52 51 54 55 55 54 54 55 53 51 51 54 58 63 60 62 62 63 63 65 66 66 67 66 64 60 55 58 60 63 61 60 61 64 71 67 66 65 67 73 78 80
52 51 54 56 56 57 58 56 56 54 53 53 57 62 60 61 60 61 62 62 63 65 65 62 59 58 55 55 66 73 73 73 69 71 71 67 66 64 62 65 72 71 75
43 48 53 52 52 56 58 57 55 54 55 57 61 63 62 61 58 59 60 59 60 59 59 58 53 55 57 59 65 73 87 83 75 81 86 83 72 65 57 59 63 73 76
42 48 53 55 56 57 58 56 55 55 57 60 62 62 59 58 57 58 58 54 51 52 52 56 55 55 58 62 62 71 78 77 76 72 78 77 73 68 65 65 63 64 73
49 56 59 61 61 59 55 54 55 56 58 62 62 61 60 56 56 56 56 53 46 48 51 55 55 56 66 66 64 61 60 59 67 63 62 64 59 59 60 55 55 61 69
56 62 63 60 59 55 54 54 55 56 60 60 60 59 57 56 57 55 51 46 44 40 49 51 61 71 65 64 58 56 57 55 52 52 51 52 48 51 53 56 60 62 66
58 59 58 57 55 54 54 54 55 57 58 58 56 56 57 58 59 52 46 46 42 45 55 71 66 61 59 57 53 49 48 45 46 47 46 50 54 55 55 56 56 55 57
53 53 55 55 53 53 54 54 57 56 56 55 55 54 55 57 51 41 40 40 44 51 57 60 56 55 55 52 50 49 47 46 44 42 46 50 51 51 53 52 50 48 49
52 51 53 53 53 54 55 56 56 57 55 56 55 52 52 52 43 43 38 39 44 59 55 53 51 50 51 50 50 50 49 49 49 51 48 46 48 51 53 53 48 49 54
50 50 52 53 54 54 56 57 56 53 54 55 52 52 54 58 57 39 37 35 53 50 44 45 46 45 46 47 48 48 51 51 52 53 53 50 48 51 51 51 50 52 57
50 51 52 54 55 57 58 57 57 58 59 53 49 53 56 55 51 43 33 40 45 38 39 42 42 42 43 45 47 48 49 50 53 55 57 51 49 52 55 56 53 53 58
49 51 52 55 56 56 57 57 58 59 60 62 58 45 46 53 51 41 40 44 44 41 40 41 41 43 44 45 46 48 49 50 52 57 60 56 52 56 59 56 55 55 55
48 51 53 54 55 56 57 58 60 60 61 60 58 48 41 47 47 41 39 42 43 43 43 45 45 45 45 46 47 48 49 49 51 55 59 59 56 61 57 56 54 55 56
46 48 50 53 54 56 59 60 59 61 61 59 53 47 42 43 49 43 38 39 42 43 44 47 48 47 45 45 46 46 46 47 48 53 58 61 61 63 57 53 52 51 52
42 44 49 53 54 55 56 58 58 58 58 57 50 44 42 44 47 44 41 41 43 45 45 46 46 44 42 43 44 44 43 42 43 50 56 59 63 60 55 52 50 47 46
42 43 45 47 49 52 54 54 54 54 53 51 48 45 44 45 46 46 44 44 45 44 42 43 43 39 38 39 39 41 43 39 38 46 54 58 60 56 51 49 46 45 43
39 41 42 43 45 47 48 48 47 47 47 47 47 46 45 46 46 45 43 43 43 41 39 41 41 38 36 37 36 35 35 33 32 42 46 51 51 49 47 45 42 40 40
35 35 36 35 36 36 39 41 42 43 43 43 44 44 44 44 45 42 41 40 41 40 38 39 38 37 36 36 34 33 31 27 23 36 44 40 38 39 41 42 42 39 36
31 32 32 33 34 36 40 41 41 41 41 40 40 41 41 41 40 40 39 40 41 42 41 39 37 37 37 35 33 31 28 26 19 24 34 29 31 34 36 38 38 38 38
Wind_Direction_850mb
189 190 196 203 208 251 323 329 329 330 331 327 325 323 323 325 325 326 328 328 328 327 327 325 323 319 316 312 306 300 293 286 283 287 285 288 288 290 292 292 288 286 283
201 204 208 222 234 251 283 305 314 318 322 323 319 318 320 321 322 323 324 325 325 325 325 324 320 317 314 311 307 301 295 290 287 289 292 291 288 287 288 290 291 286 284
211 213 219 228 241 261 277 291 301 311 317 317 315 316 319 320 321 321 321 321 321 320 320 319 316 313 311 309 306 301 296 292 287 285 291 292 290 292 293 288 289 289 286
218 220 228 237 251 263 274 280 293 303 309 312 313 313 316 317 317 317 318 318 318 318 317 315 313 311 309 308 305 301 299 296 294 289 289 293 294 296 290 291 294 292 287
222 225 231 241 254 265 271 279 283 290 298 306 309 310 312 313 314 316 316 316 315 316 315 313 312 311 310 307 305 301 297 295 294 293 291 293 293 294 291 292 283 285 282
226 229 236 246 256 267 271 275 276 279 287 297 305 309 311 312 312 313 314 315 316 316 315 313 312 311 311 308 303 296 293 295 294 290 290 292 294 295 293 286 285 289 288
228 233 241 251 259 266 272 274 272 273 282 291 301 307 310 309 307 310 312 314 315 314 312 312 312 313 313 308 303 299 296 295 290 291 288 287 290 292 291 289 286 285 287
230 236 245 255 262 267 270 271 269 272 282 292 298 302 306 304 305 308 311 313 313 311 311 312 310 313 312 306 306 306 305 299 295 291 288 290 289 291 288 288 290 290 290
233 243 251 258 263 266 268 268 270 275 283 290 298 304 303 303 305 308 310 312 311 311 311 313 311 310 309 309 307 304 302 302 306 306 304 289 284 284 282 285 283 284 285
239 254 257 257 264 267 269 271 274 279 285 293 299 300 300 300 305 306 309 309 308 308 309 312 313 308 308 307 304 303 302 302 305 301 300 299 296 294 284 273 272 275 280
259 258 254 256 260 265 267 271 276 280 285 291 296 297 296 299 302 305 308 310 308 307 308 308 310 311 311 306 301 295 295 300 299 291 289 290 290 286 283 282 278 275 276
261 259 257 257 258 263 268 272 276 280 287 293 294 293 295 299 301 305 308 308 303 303 307 309 309 310 307 309 307 303 302 299 293 297 297 298 295 290 288 286 280 275 272
265 260 256 255 259 265 269 272 276 281 287 289 289 291 294 297 299 303 305 306 306 306 305 301 302 315 318 318 318 312 307 306 305 303 302 301 300 296 293 291 290 285 280
264 258 253 255 261 265 268 271 275 281 284 285 286 290 293 296 300 303 310 317 317 311 305 303 312 316 321 324 327 326 324 319 313 308 304 303 305 305 305 305 299 297 293
259 252 250 255 260 263 267 271 276 279 280 281 284 286 290 295 301 306 307 306 310 300 298 307 315 320 324 329 332 337 338 335 326 317 312 313 314 313 315 315 306 300 290
250 248 253 257 259 263 267 272 275 278 277 280 285 286 288 291 288 295 299 298 294 286 299 308 315 320 324 329 334 337 340 341 338 329 323 320 319 321 319 319 316 301 292
248 250 253 255 260 265 268 271 274 273 275 279 280 282 284 285 285 287 289 293 279 290 296 305 310 317 322 327 331 334 336 341 341 341 334 329 328 327 323 316 311 306 299
245 250 253 259 263 266 269 271 272 274 277 275 275 280 284 281 279 281 285 276 288 290 295 300 307 313 317 322 326 329 333 337 341 342 341 338 336 330 324 321 316 307 305
248 252 257 262 265 266 268 269 271 273 277 281 285 281 276 274 276 277 271 282 286 290 293 296 302 308 312 315 319 323 327 334 337 341 343 342 339 330 326 322 319 316 316
254 258 261 264 266 268 270 271 273 276 277 280 282 283 272 270 272 270 270 274 278 286 292 296 301 304 308 310 313 317 322 329 334 338 342 343 340 334 330 326 324 322 319
258 262 266 268 271 272 273 274 276 277 279 279 279 277 273 267 267 271 269 271 277 282 288 292 297 301 305 308 310 314 320 324 330 335 341 343 344 339 335 331 329 326 325
265 268 271 273 275 276 276 277 278 278 278 278 276 271 267 264 269 272 273 274 278 283 287 291 295 300 305 308 309 312 318 324 329 336 338 342 345 339 337 336 334 332 331
273 275 276 278 280 281 282 282 281 279 278 276 274 270 266 265 267 270 273 276 279 282 285 289 292 297 302 305 307 311 315 323 330 335 338 344 341 341 341 340 338 336 336
279 281 283 285 286 285 285 286 284 281 278 276 274 272 269 269 269 272 273 275 278 280 284 286 289 294 298 299 303 307 309 316 324 333 341 339 339 345 347 346 346 344 341
286 287 289 289 288 287 287 288 288 286 284 280 277 275 273 272 273 273 274 275 276 280 282 283 285 289 292 294 300 304 306 307 316 337 339 333 339 348 355 358 359 359 357
287 288 288 287 286 286 288 290 289 288 286 283 280 277 276 275 275 276 277 277 279 282 283 283 283 284 285 288 294 299 305 305 291 335 329 335 347 355 359 1 4 9 13